CW4362 Weather Reports


time (UTC)temp
C
wind
direction
speed
KPH
gust
KPH
rain 1hr
cm
rain 24hr
cm
rain mn
cm
humidity
%
barometer
mb
20260506104037 17 113 3.2 12.9 0.00 0.00 0.00 64 1005.1
20260506103017 18 113 1.6 8.0 0.00 0.00 0.00 62 1004.7
20260506102017 18 135 1.6 8.0 0.00 0.00 0.00 60 1004.7
20260506101037 18 158 3.2 9.7 0.00 0.00 0.00 58 1004.5
20260506100017 18 158 3.2 12.9 0.00 0.00 0.00 57 1004.5
20260506095017 18 135 1.6 11.3 0.00 0.00 0.00 55 1004.5
20260506094017 18 135 1.6 4.8 0.00 0.00 0.00 55 1004.3
20260506093017 18 158 3.2 8.0 0.00 0.00 0.00 55 1004.7
20260506092017 18 0.0 3.2 0.00 0.00 0.00 54 1004.7
20260506091017 18 0.0 6.4 0.00 0.00 0.00 54 1004.7
20260506090017 18 158 1.6 8.0 0.00 0.00 0.00 53 1005.0
20260506085016 18 158 1.6 6.4 0.00 0.00 0.00 53 1005.0
20260506084019 18 158 1.6 4.8 0.00 0.00 0.00 52 1005.0
20260506083017 18 158 1.6 8.0 0.00 0.00 0.00 51 1005.1
20260506082016 19 158 1.6 8.0 0.00 0.00 0.00 51 1005.1
20260506080538 19 135 1.6 8.0 0.00 0.00 0.00 50 1004.9
20260506073516 19 135 1.6 9.7 0.00 0.00 0.00 48 1004.7
20260506072536 19 135 4.8 16.1 0.00 0.00 0.00 47 1004.9
20260506071516 20 135 3.2 16.1 0.00 0.00 0.00 46 1004.9
20260506070516 20 135 3.2 14.5 0.00 0.00 0.00 46 1005.2
20260506062516 20 158 1.6 6.4 0.00 0.00 0.00 44 1005.6
20260506061536 20 158 1.6 9.7 0.00 0.00 0.00 43 1005.6
20260506060516 20 158 1.6 9.7 0.00 0.00 0.00 43 1005.7
20260506050516 17 0.0 3.2 0.00 0.00 0.00 47 1006.4
20260506044516 17 0.0 1.6 0.00 0.00 0.00 52 1006.4
20260506043516 17 0.0 0.0 0.00 0.00 0.00 51 1006.5
20260506042516 18 0.0 0.0 0.00 0.00 0.00 47 1006.5
20260506041516 19 0.0 0.0 0.00 0.00 0.00 43 1006.5
20260506040516 20 0.0 3.2 0.00 0.00 0.00 39 1006.4
20260506035516 20 158 1.6 6.4 0.00 0.00 0.00 37 1006.4
20260506034516 20 0.0 4.8 0.00 0.00 0.00 35 1006.3
20260506033516 20 0.0 1.6 0.00 0.00 0.00 35 1006.3
20260506032536 20 0.0 3.2 0.00 0.00 0.00 36 1006.3
20260506031516 20 158 1.6 6.4 0.00 0.00 0.00 35 1006.3
20260506030536 20 158 1.6 6.4 0.00 0.00 0.00 35 1006.2
20260506025516 20 0.0 3.2 0.00 0.00 0.00 35 1006.3
20260506024516 20 0.0 3.2 0.00 0.00 0.00 34 1006.3
20260506023516 21 0.0 3.2 0.00 0.00 0.00 34 1006.3
20260506022516 21 0.0 4.8 0.00 0.00 0.00 33 1006.3
20260506021516 21 0.0 4.8 0.00 0.00 0.00 32 1006.3
20260506020516 21 0.0 6.4 0.00 0.00 0.00 33 1006.3
20260506015516 21 158 1.6 6.4 0.00 0.00 0.00 33 1006.3
20260506014516 21 0.0 1.6 0.00 0.00 0.00 34 1006.3
20260506013516 21 158 1.6 6.4 0.00 0.00 0.00 35 1006.2
20260506012516 21 0.0 4.8 0.00 0.00 0.00 35 1006.0
20260506011536 20 0.0 4.8 0.00 0.00 0.00 38 1006.0
20260506010516 20 0.0 0.0 0.00 0.00 0.00 42 1005.8
20260506005516 21 0.0 3.2 0.00 0.00 0.00 38 1005.7
20260506004516 22 0.0 0.0 0.00 0.00 0.00 38 1005.7
20260506003516 22 0.0 0.0 0.00 0.00 0.00 33 1005.6
20260506002516 23 0.0 1.6 0.00 0.00 0.00 30 1005.3
20260506001516 23 0.0 3.2 0.00 0.00 0.00 28 1005.3
20260506000516 23 158 1.6 8.0 0.00 0.00 0.00 27 1005.2
20260505235516 24 158 3.2 9.7 0.00 0.00 0.00 27 1004.9
20260505234536 25 135 1.6 12.9 0.00 0.00 0.00 28 1004.9
20260505233516 25 135 1.6 8.0 0.00 0.00 0.00 27 1004.8
20260505232516 25 158 1.6 11.3 0.00 0.00 0.00 28 1004.7
20260505231516 25 158 3.2 14.5 0.00 0.00 0.00 28 1004.7
20260505230515 25 135 4.8 17.7 0.00 0.00 0.00 28 1004.7
20260505225536 25 158 3.2 14.5 0.00 0.00 0.00 27 1004.7
20260505224515 26 158 4.8 17.7 0.00 0.00 0.00 30 1004.7
20260505223515 26 158 3.2 8.0 0.00 0.00 0.00 29 1004.8
20260505222515 26 135 3.2 6.4 0.00 0.00 0.00 29 1004.8
20260505221516 26 158 3.2 11.3 0.00 0.00 0.00 27 1004.8
20260505220515 26 113 4.8 14.5 0.00 0.00 0.00 24 1004.7
20260505215535 26 135 4.8 27.4 0.00 0.00 0.00 24 1004.7
20260505214515 26 158 4.8 19.3 0.00 0.00 0.00 23 1004.7
20260505213515 27 158 4.8 17.7 0.00 0.00 0.00 23 1004.7
20260505212515 27 0 4.8 25.7 0.00 0.00 0.00 22 1004.6
20260505211515 28 135 6.4 20.9 0.00 0.00 0.00 22 1004.6
20260505210517 28 158 4.8 17.7 0.00 0.00 0.00 24 1004.4
20260505205537 28 180 4.8 20.9 0.00 0.00 0.00 23 1004.5
20260505204517 28 135 9.7 24.1 0.00 0.00 0.00 23 1004.5
20260505203537 28 135 6.4 24.1 0.00 0.00 0.00 24 1004.6
20260505202517 28 158 4.8 20.9 0.00 0.00 0.00 24 1004.7
20260505201517 28 135 4.8 19.3 0.00 0.00 0.00 24 1004.7
20260505200517 28 135 4.8 17.7 0.00 0.00 0.00 23 1004.8
20260505195517 28 135 4.8 11.3 0.00 0.00 0.00 25 1004.9
20260505194517 28 158 6.4 29.0 0.00 0.00 0.00 25 1004.9
20260505193517 28 135 8.0 24.1 0.00 0.00 0.00 26 1005.2
20260505192517 28 135 3.2 20.9 0.00 0.00 0.00 28 1005.5
20260505191517 28 135 4.8 19.3 0.00 0.00 0.00 28 1005.5
20260505190537 28 135 3.2 16.1 0.00 0.00 0.00 27 1005.7
20260505185517 28 135 4.8 17.7 0.00 0.00 0.00 27 1005.7
20260505184517 28 135 4.8 24.1 0.00 0.00 0.00 28 1005.7
20260505183517 29 158 4.8 19.3 0.00 0.00 0.00 27 1005.9
20260505182517 28 135 3.2 14.5 0.00 0.00 0.00 27 1006.2
20260505181517 28 158 3.2 9.7 0.00 0.00 0.00 27 1006.2
20260505180536 28 113 3.2 8.0 0.00 0.00 0.00 30 1006.3
20260505175517 28 135 4.8 16.1 0.00 0.00 0.00 29 1006.3
20260505174516 28 135 4.8 17.7 0.00 0.00 0.00 28 1006.3
20260505173517 28 135 6.4 27.4 0.00 0.00 0.00 28 1006.3
20260505172517 28 180 4.8 22.5 0.00 0.00 0.00 27 1006.3
20260505171517 28 180 3.2 14.5 0.00 0.00 0.00 27 1006.4
20260505170536 28 180 1.6 14.5 0.00 0.00 0.00 27 1006.8
20260505165516 28 180 1.6 12.9 0.00 0.00 0.00 27 1007.1
20260505164516 27 248 3.2 17.7 0.00 0.00 0.00 28 1007.0
20260505163516 27 270 4.8 17.7 0.00 0.00 0.00 29 1007.3
20260505162517 27 203 1.6 6.4 0.00 0.00 0.00 30 1007.6
20260505161516 27 248 3.2 17.7 0.00 0.00 0.00 29 1007.5
20260505160536 26 203 3.2 16.1 0.00 0.00 0.00 37 1007.8
20260505152516 26 180 1.6 6.4 0.00 0.00 0.00 34 1007.8
20260505151516 26 158 3.2 11.3 0.00 0.00 0.00 33 1007.8
20260505150536 26 180 1.6 11.3 0.00 0.00 0.00 34 1007.8
20260505140516 24 180 1.6 8.0 0.00 0.00 0.00 38 1007.9
20260505124516 20 158 3.2 14.5 0.00 0.00 0.00 47 1008.4
20260505123516 20 158 1.6 9.7 0.00 0.00 0.00 50 1008.7
20260505122536 20 158 1.6 6.4 0.00 0.00 0.00 51 1008.9
20260505121516 18 158 1.6 9.7 0.00 0.00 0.00 54 1008.9
20260505121035 18 158 1.6 11.3 0.00 0.00 0.00 54 1008.9
20260505120037 17 158 1.6 4.8 0.00 0.00 0.00 59 1008.8
20260505115017 16 0.0 3.2 0.00 0.00 0.00 65 1008.8
20260505114037 15 158 1.6 6.4 0.00 0.00 0.00 71 1008.6
20260505113016 13 0.0 3.2 0.00 0.00 0.00 76 1008.4
20260505112037 12 0.0 3.2 0.00 0.00 0.00 82 1008.4
20260505111016 12 0.0 0.0 0.00 0.00 0.00 81 1008.3